Stations météo

réclame
Mon MeteoGroup
Capo Mele, Italie (16153): Température de l'air & dewpoint: 17.04.2018 03:00:00 - 23.04.2018 03:00:00 (CEST)Capo Mele, Italie (16153): Vitesse du vent: 17.04.2018 03:00:00 - 23.04.2018 03:00:00 (CEST)Capo Mele, Italie (16153): Direction du vent: 17.04.2018 03:00:00 - 23.04.2018 03:00:00 (CEST)Capo Mele, Italie (16153): reduced air pressure: 17.04.2018 03:00:00 - 23.04.2018 03:00:00 (CEST)Capo Mele, Italie (16153): visibility: 17.04.2018 03:00:00 - 23.04.2018 03:00:00 (CEST)Capo Mele, Italie (16153): Ensoleillement: 17.04.2018 03:00:00 - 23.04.2018 03:00:00 (CEST)
Date & Time tt [°C] td [°C] ff [km/h] ff [knt] dd ppp [hPa] vv [km] sd [min]
23.04.2018 03:00:00 16,0 15,0 21 11 N 1019,4 10 -
23.04.2018 02:00:00 16,1 15,3 16 9 N 1019,4 10 -
23.04.2018 01:00:00 16,1 15,3 15 8 N 1019,4 10 -
23.04.2018 00:00:00 16,0 15,0 13 7 N 1019,3 10 -
22.04.2018 23:00:00 16,1 15,6 11 6 N 1018,6 10 -
22.04.2018 22:00:00 16,2 15,7 18 10 N 1018,3 10 -
22.04.2018 21:00:00 16,4 16,4 16 9 N 1018,1 10 -
22.04.2018 20:00:00 17,4 17,4 15 8 N 1017,6 10 60
22.04.2018 19:00:00 19,1 16,3 13 7 N 1017,4 10 60
22.04.2018 18:00:00 20,1 15,3 13 7 N 1017,4 20 60
22.04.2018 17:00:00 20,4 15,0 11 6 N 1017,5 25 60
22.04.2018 16:00:00 22,4 13,5 15 8 N 1017,8 20 60
22.04.2018 15:00:00 20,2 15,2 16 9 N 1018,1 25 60
22.04.2018 14:00:00 19,5 17,5 18 10 N 1018,3 20 60
22.04.2018 13:00:00 19,9 17,7 18 10 N 1018,4 10 60
22.04.2018 12:00:00 19,1 16,5 18 10 N 1018,3 10 60
22.04.2018 11:00:00 19,3 16,5 18 10 N 1018,4 15 60
22.04.2018 10:00:00 19,0 10,5 18 10 N 1018,0 25 60
22.04.2018 09:00:00 19,2 10,5 13 7 NNE 1018,0 30 42
22.04.2018 08:00:00 18,6 9,1 5 3 NNE 1017,7 30 0
22.04.2018 07:00:00 18,2 6,4 9 5 N 1017,3 30 0
22.04.2018 06:00:00 18,0 7,7 8 4 N 1017,7 30 0
22.04.2018 05:00:00 17,6 7,1 15 8 N 1017,9 30 0
22.04.2018 04:00:00 18,4 6,6 4 2 ENE 1017,8 30 0
22.04.2018 03:00:00 19,2 6,7 4 2 SSW 1017,6 30 0
22.04.2018 02:00:00 20,0 7,4 4 2 SW 1017,6 30 0
22.04.2018 01:00:00 19,2 8,5 5 3 NE 1017,6 30 0
22.04.2018 00:00:00 19,0 7,1 8 4 N 1017,6 30 0
21.04.2018 23:00:00 22,4 4,0 5 3 WSW 1017,3 20 0
21.04.2018 22:00:00 22,0 5,4 9 5 SW 1017,4 30 0
21.04.2018 21:00:00 22,8 6,1 8 4 SW 1017,3 30 0
21.04.2018 20:00:00 22,8 8,5 5 3 SW 1017,2 30 48
21.04.2018 19:00:00 23,2 8,1 15 8 SW 1017,4 30 60
21.04.2018 18:00:00 23,8 8,7 18 10 SW 1017,6 30 60
21.04.2018 17:00:00 24,0 8,4 24 13 SSW 1017,9 30 60
21.04.2018 16:00:00 24,8 9,1 28 15 SSW 1018,6 30 60
21.04.2018 15:00:00 24,7 9,0 21 11 SW 1019,1 30 60
21.04.2018 14:00:00 24,2 8,6 15 8 SSW 1019,5 30 60
21.04.2018 13:00:00 26,0 10,2 5 3 S 1019,8 30 60
21.04.2018 12:00:00 25,2 9,5 11 6 NE 1020,1 30 60
21.04.2018 11:00:00 24,9 8,8 13 7 NNE 1019,7 20 60
21.04.2018 10:00:00 24,0 8,8 8 4 NE 1019,7 30 60
21.04.2018 09:00:00 22,2 7,2 8 4 NNE 1019,9 30 60
21.04.2018 08:00:00 20,6 5,8 5 3 NNE 1019,7 30 54
21.04.2018 07:00:00 20,8 6,0 13 7 N 1019,9 20 -
21.04.2018 06:00:00 20,2 5,1 16 9 N 1020,0 20 -
21.04.2018 05:00:00 20,6 5,0 11 6 N 1020,0 20 -
21.04.2018 04:00:00 20,4 5,6 15 8 N 1020,2 20 -
21.04.2018 03:00:00 21,0 6,2 11 6 N 1020,7 20 -
21.04.2018 02:00:00 21,0 6,9 9 5 N 1020,8 20 -
21.04.2018 01:00:00 21,8 6,1 5 3 NE 1020,7 20 -
21.04.2018 00:00:00 22,0 5,9 5 3 NE 1020,7 20 -
20.04.2018 23:00:00 22,4 7,0 5 3 NNW 1020,6 20 -
20.04.2018 22:00:00 22,4 7,0 5 3 E 1020,5 20 -
20.04.2018 21:00:00 23,6 7,2 13 7 NNW 1020,0 30 -
20.04.2018 20:00:00 25,0 8,1 16 9 NNW 1020,1 30 30
20.04.2018 19:00:00 26,2 8,7 13 7 NNW 1020,1 30 60
20.04.2018 18:00:00 27,6 10,8 15 8 NNW 1020,2 30 60
20.04.2018 17:00:00 27,0 9,4 22 12 N 1020,7 30 60
20.04.2018 16:00:00 27,4 10,6 28 15 N 1021,6 30 60
20.04.2018 15:00:00 27,4 11,0 26 14 NNE 1022,3 30 60
20.04.2018 14:00:00 27,2 11,3 24 13 NNE 1022,5 30 60
20.04.2018 13:00:00 26,8 10,9 26 14 NNE 1023,3 30 60
20.04.2018 12:00:00 26,6 10,7 24 13 NNE 1023,3 30 60
20.04.2018 11:00:00 25,6 10,2 22 12 N 1023,4 20 60
20.04.2018 10:00:00 24,6 10,1 15 8 N 1023,5 30 60
20.04.2018 09:00:00 22,4 8,9 21 11 N 1023,7 25 60
20.04.2018 08:00:00 19,2 6,7 22 12 N 1023,9 20 -
20.04.2018 07:00:00 18,0 5,6 21 11 N 1024,0 30 -
20.04.2018 06:00:00 18,0 5,6 16 9 N 1024,0 40 -
20.04.2018 05:00:00 18,0 4,9 16 9 N 1024,1 40 -
20.04.2018 04:00:00 18,0 4,2 15 8 N 1024,2 40 -
20.04.2018 03:00:00 17,8 7,5 15 8 N 1024,5 40 -
20.04.2018 02:00:00 17,2 6,7 18 10 N 1025,1 40 -
20.04.2018 01:00:00 17,0 8,2 15 8 N 1025,2 40 -
20.04.2018 00:00:00 17,4 6,3 11 6 N 1025,4 40 -
19.04.2018 23:00:00 17,8 6,4 8 4 N 1025,3 20 -
19.04.2018 22:00:00 18,4 6,3 8 4 NE 1025,2 40 -
19.04.2018 21:00:00 18,8 5,6 9 5 SSW 1024,8 30 -
19.04.2018 20:00:00 19,0 6,5 11 6 SSW 1024,9 30 42
19.04.2018 19:00:00 19,4 7,8 13 7 SSW 1025,0 30 60
19.04.2018 18:00:00 20,0 8,0 16 9 SSW 1025,0 30 60
19.04.2018 17:00:00 20,0 8,7 11 6 SSW 1025,5 30 60
19.04.2018 16:00:00 22,0 8,5 5 3 ESE 1025,6 30 60
19.04.2018 15:00:00 23,0 9,4 9 5 NNE 1025,8 30 60
19.04.2018 14:00:00 26,0 9,8 31 17 NNE 1026,0 30 60
19.04.2018 13:00:00 24,0 8,4 31 17 N 1026,2 30 60
19.04.2018 12:00:00 23,4 8,3 29 16 N 1026,3 30 60
19.04.2018 11:00:00 21,2 7,4 24 13 N 1026,4 30 60
19.04.2018 10:00:00 20,8 7,4 13 7 SW 1026,0 30 60
19.04.2018 09:00:00 20,0 6,4 15 8 N 1026,0 30 30
19.04.2018 08:00:00 18,6 4,0 18 10 N 1026,1 30 -
19.04.2018 07:00:00 18,5 2,8 18 10 N 1026,4 30 -
19.04.2018 06:00:00 17,6 3,5 22 12 N 1027,2 50 -
19.04.2018 05:00:00 16,1 5,7 16 9 N 1027,7 50 -
19.04.2018 04:00:00 16,4 5,4 21 11 NNE 1027,7 50 -
19.04.2018 03:00:00 17,1 4,1 11 6 N 1027,7 50 -
19.04.2018 02:00:00 18,7 2,5 13 7 N 1027,6 50 -
19.04.2018 01:00:00 18,8 3,8 18 10 N 1027,2 50 -
19.04.2018 00:00:00 19,1 4,8 15 8 N 1027,0 50 -
18.04.2018 23:00:00 19,1 6,2 11 6 N 1026,8 50 -
18.04.2018 22:00:00 19,2 7,3 8 4 N 1026,7 50 -
18.04.2018 21:00:00 18,5 8,2 8 4 NNE 1026,3 50 -
18.04.2018 20:00:00 19,8 8,2 11 6 NE 1026,0 35 30
18.04.2018 19:00:00 21,2 8,5 8 4 NE 1026,0 35 54
18.04.2018 18:00:00 20,8 9,1 5 3 E 1026,1 35 54
18.04.2018 17:00:00 21,4 8,0 5 3 ESE 1026,2 20 60
18.04.2018 16:00:00 22,4 8,5 13 7 ENE 1026,3 35 60
18.04.2018 15:00:00 25,0 9,3 18 10 NNE 1026,3 35 60
18.04.2018 14:00:00 24,8 9,5 15 8 NNE 1026,6 35 60
18.04.2018 13:00:00 25,0 10,1 24 13 NNE 1026,6 35 60
18.04.2018 12:00:00 24,2 10,5 18 10 NNE 1026,8 35 60
18.04.2018 11:00:00 23,4 11,1 26 14 NNE 1026,8 20 60
18.04.2018 10:00:00 22,0 10,8 13 7 N 1026,8 30 60
18.04.2018 09:00:00 20,4 9,9 11 6 N 1026,7 25 24
18.04.2018 08:00:00 18,8 8,2 13 7 N 1026,1 20 -
18.04.2018 07:00:00 16,8 9,2 15 8 N 1026,1 25 -
18.04.2018 06:00:00 17,0 8,4 11 6 NE 1025,9 25 -
18.04.2018 05:00:00 17,0 8,2 15 8 NE 1025,4 25 -
18.04.2018 04:00:00 19,0 6,5 16 9 N 1025,0 25 -
18.04.2018 03:00:00 19,0 6,8 16 9 N 1025,0 30 -
18.04.2018 02:00:00 18,2 8,2 18 10 N 1025,1 30 -
18.04.2018 01:00:00 18,0 8,8 18 10 N 1024,7 30 -
18.04.2018 00:00:00 19,2 7,9 11 6 N 1024,0 30 -
17.04.2018 23:00:00 19,0 8,7 13 7 N 1023,2 30 -
17.04.2018 22:00:00 19,0 8,4 4 2 NW 1022,1 30 -
17.04.2018 21:00:00 19,2 8,5 4 2 NNW 1021,8 30 -
17.04.2018 20:00:00 18,9 9,7 8 4 WSW 1021,5 30 48
17.04.2018 19:00:00 21,2 9,5 4 2 S 1020,9 30 60
17.04.2018 18:00:00 21,9 10,4 4 2 S 1021,0 30 60
17.04.2018 17:00:00 20,4 10,8 5 3 SSW 1020,7 30 60
17.04.2018 16:00:00 19,5 10,8 4 2 SW 1020,8 30 60
17.04.2018 15:00:00 18,9 10,2 8 4 SSW 1020,8 25 60
17.04.2018 14:00:00 18,6 13,9 13 7 SSW 1020,6 25 60
17.04.2018 13:00:00 15,0 13,5 5 3 SSW 1021,4 4,0 30
17.04.2018 12:00:00 14,6 13,3 5 3 S 1021,3 0,1 12
17.04.2018 11:00:00 14,3 12,9 11 6 NNE 1020,8 0,1 12
17.04.2018 10:00:00 14,6 13,3 9 5 N 1020,1 0,1 54
17.04.2018 09:00:00 13,9 13,0 9 5 N 1019,6 4,0 0
17.04.2018 08:00:00 13,0 11,4 15 8 N 1019,4 30 -
17.04.2018 07:00:00 12,0 11,2 21 11 N 1015,6 30 -
17.04.2018 06:00:00 12,4 9,8 21 11 N 1015,5 30 -
17.04.2018 05:00:00 12,8 11,9 15 8 NNE 1015,3 20 -
17.04.2018 04:00:00 12,9 12,1 13 7 N 1015,2 30 -
17.04.2018 03:00:00 13,0 12,1 9 5 N 1015,0 30 -

tt = Température de l'air
td = dewpoint
ff = Vitesse du vent
dd = Direction du vent
ppp = reduced air pressure
vv = visibility
sd = Ensoleillement

stations d'obs. à proximité